Salida, CO

10:35 AM MDT on April 19, 2018 (GMT -0600)
Salida

Weather History for KANK - December, 2012

Change the Weather History Date:

Tuesday, December 18, 2012

  Actual Average (KGUC) Record (KGUC)
Temperature  
Mean Temperature 31 °F -  
Max Temperature 34 °F 22 °F 46 °F (1998)
Min Temperature 28 °F 0 °F -34 °F (1996)
Degree Days  
Heating Degree Days 34    
Moisture  
Dew Point 18 °F    
Average Humidity 56    
Maximum Humidity 68    
Minimum Humidity 48    
Precipitation  
Precipitation 0.00 in - - ()
Sea Level Pressure  
Sea Level Pressure 29.79 in    
Wind  
Wind Speed 14 mph (SSW)    
Max Wind Speed 21 mph    
Max Gust Speed 30 mph    
Visibility 10 miles    
Events      
Averages and records for this station are not official NWS values.
T = Trace of Precipitation, MM = Missing Value Source: NWS Daily Summary

Daily Weather History Graph

Daily Weather History Graph

Search for Another Location

Airport or City:

Astronomy

Dec. 18, 2012 Rise Set
Actual Time 7:16 AM MST 4:45 PM MST
Civil Twilight 6:47 AM MST 5:15 PM MST
Nautical Twilight 6:13 AM MST 5:48 PM MST
Astronomical Twilight 5:41 AM MST 6:20 PM MST
Moon 11:01 AM MST (12/18) 11:10 PM MST (12/18)
Length of Visible Light 10h 28m
Length of Day
9h 28m
Waxing Crescent, 35% of the Moon is Illuminated
Dec 18
Waxing Crescent
Dec 19
First Quarter
Dec 28
Full
Jan 4
Last Quarter
Jan 11
New

Hourly Weather History & Observations

Time (MST) Temp. Windchill Dew Point Humidity Pressure Visibility Wind Dir Wind Speed Gust Speed Precip Events Conditions
12:15 AM 33.8 °F 24.8 °F 17.6 °F 52% 29.84 in 10.0 mi WSW 12.7 mph 24.2 mph N/A   Overcast
12:35 AM 33.4 °F 23.9 °F 18.1 °F 54% 29.84 in 10.0 mi SW 13.8 mph 23.0 mph N/A   Overcast
12:55 AM 33.6 °F 25.0 °F 18.5 °F 54% 29.84 in 10.0 mi SW 11.5 mph 24.2 mph N/A   Overcast
1:15 AM 33.3 °F 21.5 °F 18.9 °F 56% 29.84 in 10.0 mi SW 20.7 mph 29.9 mph N/A   Overcast
1:35 AM 33.3 °F 22.5 °F 19.0 °F 56% 29.84 in 10.0 mi SW 17.3 mph 25.3 mph N/A   Overcast
1:55 AM 32.0 °F 22.1 °F 19.4 °F 60% 29.84 in 10.0 mi SW 13.8 mph 20.7 mph N/A   Overcast
2:15 AM 31.8 °F 21.4 °F 19.4 °F 60% 29.84 in 10.0 mi SW 15.0 mph 23.0 mph N/A   Overcast
2:35 AM 32.0 °F 23.6 °F 19.2 °F 59% 29.84 in 10.0 mi SW 10.4 mph 21.9 mph N/A   Overcast
2:55 AM 32.0 °F 23.0 °F 19.0 °F 59% 29.83 in 10.0 mi SW 11.5 mph 17.3 mph N/A   Overcast
3:15 AM 31.6 °F 21.6 °F 19.0 °F 60% 29.83 in 10.0 mi SW 13.8 mph 20.7 mph N/A   Overcast
3:35 AM 33.8 °F 24.3 °F 17.6 °F 52% 29.82 in 10.0 mi WSW 13.8 mph 23.0 mph N/A   Overcast
3:55 AM 32.7 °F 24.5 °F 17.8 °F 54% 29.81 in 10.0 mi SSW 10.4 mph 19.6 mph N/A   Overcast
4:15 AM 31.1 °F 21.4 °F 18.3 °F 59% 29.82 in 10.0 mi SW 12.7 mph 21.9 mph N/A   Overcast
4:35 AM 32.0 °F 20.8 °F 18.1 °F 57% 29.82 in 10.0 mi SW 17.3 mph 24.2 mph N/A   Overcast
5:15 AM 32.2 °F 22.3 °F 18.1 °F 56% 29.83 in 10.0 mi SW 13.8 mph 20.7 mph N/A   Scattered Clouds
5:35 AM 32.0 °F 20.8 °F 18.3 °F 57% 29.83 in 10.0 mi SW 17.3 mph 23.0 mph N/A   Mostly Cloudy
5:55 AM 32.0 °F 22.5 °F 18.1 °F 57% 29.83 in 10.0 mi WSW 12.7 mph 24.2 mph N/A   Overcast
6:15 AM 30.6 °F 20.2 °F 18.5 °F 61% 29.84 in 10.0 mi SW 13.8 mph 23.0 mph N/A   Scattered Clouds
6:35 AM 29.8 °F 18.9 °F 18.0 °F 61% 29.84 in 10.0 mi SW 15.0 mph 19.6 mph N/A   Scattered Clouds
6:55 AM 29.1 °F 17.9 °F 17.6 °F 62% 29.85 in 10.0 mi SSW 15.0 mph 23.0 mph N/A   Scattered Clouds
7:15 AM 28.8 °F 16.6 °F 16.7 °F 61% 29.85 in 10.0 mi SSW 17.3 mph 25.3 mph N/A   Scattered Clouds
7:35 AM 28.8 °F 17.0 °F 16.9 °F 61% 29.85 in 10.0 mi SSW 16.1 mph 20.7 mph N/A   Clear
7:55 AM 29.7 °F 18.2 °F 17.2 °F 60% 29.86 in 10.0 mi SW 16.1 mph 23.0 mph N/A   Clear
8:15 AM 29.8 °F 19.3 °F 17.6 °F 60% 29.86 in 10.0 mi SSW 13.8 mph 23.0 mph N/A   Scattered Clouds
8:35 AM 30.2 °F 18.9 °F 17.6 °F 60% 29.87 in 10.0 mi SSW 16.1 mph 24.2 mph N/A   Scattered Clouds
8:55 AM 30.9 °F 19.4 °F 17.4 °F 57% 29.88 in 10.0 mi South 17.3 mph 25.3 mph N/A   Overcast
9:15 AM 30.9 °F 21.2 °F 18.1 °F 59% 29.88 in 10.0 mi South 12.7 mph 17.3 mph N/A   Overcast
9:35 AM 31.1 °F 20.5 °F 17.4 °F 57% 29.89 in 10.0 mi South 15.0 mph 21.9 mph N/A   Overcast
9:55 AM 31.3 °F 21.1 °F 16.7 °F 55% 29.88 in 10.0 mi South 13.8 mph 24.2 mph N/A   Overcast
10:15 AM 31.1 °F 19.7 °F 16.5 °F 55% 29.89 in 10.0 mi South 17.3 mph 26.5 mph N/A   Overcast
10:35 AM 32.0 °F 20.5 °F 16.7 °F 53% 29.89 in 10.0 mi South 18.4 mph 25.3 mph N/A   Mostly Cloudy
10:55 AM 32.9 °F 22.8 °F 17.2 °F 53% 29.88 in 10.0 mi South 15.0 mph 24.2 mph N/A   Scattered Clouds
11:15 AM 32.0 °F 21.2 °F 16.9 °F 54% 29.86 in 10.0 mi South 16.1 mph 27.6 mph N/A   Clear
11:35 AM 32.5 °F 21.2 °F 16.7 °F 52% 29.85 in 10.0 mi South 18.4 mph 25.3 mph N/A   Clear
11:55 AM 32.7 °F 22.1 °F 16.7 °F 52% 29.83 in 10.0 mi South 16.1 mph 25.3 mph N/A   Clear
12:15 PM 33.3 °F 22.1 °F 16.9 °F 51% 29.83 in 10.0 mi South 18.4 mph 25.3 mph N/A   Clear
12:35 PM 33.3 °F 21.8 °F 16.3 °F 50% 29.82 in 10.0 mi South 19.6 mph 28.8 mph N/A   Clear
12:55 PM 33.6 °F 22.9 °F 16.7 °F 50% 29.81 in 10.0 mi South 17.3 mph 25.3 mph N/A   Clear
1:15 PM 33.8 °F 22.5 °F 16.5 °F 49% 29.80 in 10.0 mi South 19.6 mph 28.8 mph N/A   Mostly Cloudy
1:35 PM 33.8 °F 22.8 °F 16.2 °F 49% 29.80 in 10.0 mi South 18.4 mph 28.8 mph N/A   Mostly Cloudy
1:55 PM 34.2 °F 23.6 °F 16.5 °F 49% 29.78 in 10.0 mi South 17.3 mph 27.6 mph N/A   Mostly Cloudy
2:15 PM 34.7 °F 24.0 °F 17.6 °F 50% 29.78 in 10.0 mi South 18.4 mph 27.6 mph N/A   Scattered Clouds
2:35 PM 34.2 °F 22.6 °F 19.2 °F 54% 29.77 in 10.0 mi South 20.7 mph 29.9 mph N/A   Scattered Clouds
2:55 PM 34.7 °F 25.1 °F 19.9 °F 55% 29.76 in 10.0 mi South 15.0 mph 27.6 mph N/A   Clear
3:15 PM 34.7 °F 25.9 °F 19.4 °F 54% 29.76 in 10.0 mi South 12.7 mph 24.2 mph N/A   Clear
3:35 PM 34.2 °F 26.2 °F 18.1 °F 52% 29.76 in 10.0 mi South 10.4 mph 20.7 mph N/A   Clear
3:55 PM 34.3 °F 25.9 °F 16.5 °F 48% 29.75 in 10.0 mi South 11.5 mph 18.4 mph N/A   Clear
4:15 PM 33.8 °F 24.8 °F 16.3 °F 49% 29.75 in 10.0 mi South 12.7 mph 21.9 mph N/A   Clear
4:35 PM 33.8 °F 23.5 °F 16.2 °F 49% 29.75 in 10.0 mi South 16.1 mph 24.2 mph N/A   Clear
4:55 PM 33.1 °F 24.4 °F 16.7 °F 51% 29.74 in 10.0 mi SSW 11.5 mph 21.9 mph N/A   Clear
5:15 PM 33.1 °F 22.6 °F 17.4 °F 53% 29.73 in 10.0 mi South 16.1 mph 21.9 mph N/A   Clear
5:35 PM 32.9 °F 25.3 °F 17.2 °F 53% 29.73 in 10.0 mi South 9.2 mph - N/A   Scattered Clouds
5:55 PM 32.5 °F 23.2 °F 17.2 °F 53% 29.73 in 10.0 mi South 12.7 mph 18.4 mph N/A   Overcast
6:15 PM 32.7 °F 23.9 °F 17.6 °F 54% 29.73 in 10.0 mi SSW 11.5 mph 19.6 mph N/A   Overcast
6:35 PM 32.5 °F 22.7 °F 18.7 °F 57% 29.72 in 10.0 mi South 13.8 mph 23.0 mph N/A   Overcast
6:55 PM 32.0 °F 22.5 °F 19.4 °F 60% 29.72 in 10.0 mi South 12.7 mph 21.9 mph N/A   Scattered Clouds
7:15 PM 32.0 °F 22.5 °F 19.4 °F 60% 29.72 in 10.0 mi SSE 12.7 mph 23.0 mph N/A   Clear
7:35 PM 32.0 °F 24.2 °F 19.2 °F 59% 29.72 in 10.0 mi South 9.2 mph 17.3 mph N/A   Clear
7:55 PM 32.4 °F 23.0 °F 18.7 °F 57% 29.72 in 10.0 mi South 12.7 mph 21.9 mph N/A   Mostly Cloudy
8:15 PM 32.4 °F 23.0 °F 18.5 °F 57% 29.71 in 10.0 mi South 12.7 mph 20.7 mph N/A   Overcast
8:35 PM 32.5 °F 27.1 °F 18.1 °F 55% 29.70 in 10.0 mi South 5.8 mph 17.3 mph N/A   Overcast
8:55 PM 32.0 °F 27.5 °F 18.1 °F 57% 29.70 in 10.0 mi SW 4.6 mph - N/A   Overcast
9:15 PM 32.5 °F 29.3 °F 18.5 °F 56% 29.70 in 10.0 mi SSW 3.5 mph - N/A   Overcast
9:35 PM 32.0 °F 28.7 °F 19.0 °F 59% 29.69 in 10.0 mi West 3.5 mph - N/A   Overcast
9:55 PM 31.8 °F - 19.4 °F 60% 29.68 in 10.0 mi Calm Calm - N/A   Overcast
10:15 PM 32.0 °F - 19.6 °F 60% 29.68 in 10.0 mi Calm Calm - N/A   Overcast
10:35 PM 31.1 °F 23.1 °F 20.3 °F 64% 29.67 in 10.0 mi WNW 9.2 mph - N/A   Mostly Cloudy
10:55 PM 31.8 °F 23.9 °F 20.3 °F 62% 29.66 in 10.0 mi SW 9.2 mph 16.1 mph N/A   Mostly Cloudy
11:15 PM 31.1 °F 24.5 °F 20.8 °F 66% 29.65 in 10.0 mi SSW 6.9 mph - N/A   Mostly Cloudy
11:35 PM 30.6 °F 24.7 °F 21.2 °F 68% 29.66 in 10.0 mi WSW 5.8 mph - N/A   Mostly Cloudy
11:55 PM 31.1 °F 23.1 °F 21.2 °F 67% 29.64 in 10.0 mi SW 9.2 mph 16.1 mph N/A   Mostly Cloudy